Powrót do katalogu

TIANMU-1 06

AktywnyNaukaSSO
NORAD 55976·PAYLOAD·🇨🇳 China

Wystrzelony Mar 22, 2023 z Jiuquan Satellite Launch Center

Loading…

Następne Przeloty (najbliższe 24 godziny)

TLE

ŚwieżeSource: Space-Track

Epoka: Sep 14, 2026, 13:54 UTC

1 55976U 23039D   26257.57932047  .00013508  00000-0  24132-3 0  9990
2 55976  97.5252  75.5485 0003538 125.6809 234.4772 15.50156432194687

Śledź TIANMU-1 06 w czasie rzeczywistym z AllMySat

Download on the App Store